sat.trackr.live / text

‹ back to catalog

STARLINK-5358

NORAD 57143 · 2023-090AU

PAYLOAD ACTIVE UNKNOWN

§ Identity

Operator
Country
US
Launch date
2023-06-23
Launch site
AFETR
Launch vehicle
Mass (kg)
RCS (m²)

Purposes: comms

External: N2YO · Heavens-Above · Gunter

§ Orbital elements

Epoch: 2026-09-20T09:32:26.411424Z

Period
94.27 min
Inclination
43.0048°
Eccentricity
0.0001416
Mean motion
15.27584804 rev/d
Perigee alt
482.1 km
Apogee alt
484.0 km
Semi-major
6,861.2 km
B*
-2.1289e-5
RAAN
243.5450°
Arg perigee
288.9133°
Mean anomaly
71.1565°
Rev number
18,013

§ Raw data

STARLINK-53581 57143U 23090AU  26263.39752791 -.00000848  00000+0 -21289-4 0  99932 57143  43.0048 243.5450 0001416 288.9133  71.1565 15.27584804180132

JSON: /api/v1/satellites/57143 · /tle

For live sub-satellite position, see the globe view (requires WebGL).

§ Visibility from observer

Set your observer location to see the next 7 days of passes ≥ 10°. The values pass through the URL so the page stays shareable.

No JS? Fill the form by hand. The geolocation button needs JavaScript.